• In Schweiz
  • Länderverzeichnis
  • Für 7 Tage
  • Wassertemperatur
  • Satellitenkarten
  • Wetterkarte
  • Widgets
  • user-avatar
    Anmelden

    Stündliche Wetter Serebryanka

    Heute, 18 Juli, Mittwoch

    Zeit Temperatur Niederschläge Wind Luftdruck Luftfeuchtigkeit
    00:00 +21°C° 0,1 mm 2 m/S 742 mmHg 83%
    01:00 +20°C° 0 mm 3 m/S 742 mmHg 84%
    02:00 +20°C° 0 mm 3 m/S 742 mmHg 85%
    03:00 +20°C° 0 mm 3 m/S 742 mmHg 87%
    04:00 +20°C° 0 mm 3 m/S 742 mmHg 86%
    05:00 +20°C° 0 mm 4 m/S 742 mmHg 86%
    06:00 +20°C° 0 mm 4 m/S 742 mmHg 86%
    07:00 +21°C° 0 mm 4 m/S 742 mmHg 81%
    08:00 +22°C° 0 mm 5 m/S 742 mmHg 76%
    09:00 +23°C° 0 mm 5 m/S 742 mmHg 71%
    10:00 +25°C° 0,1 mm 5 m/S 742 mmHg 66%
    11:00 +26°C° 0,1 mm 6 m/S 742 mmHg 62%
    12:00 +27°C° 0,1 mm 6 m/S 742 mmHg 57%
    13:00 +28°C° 0,4 mm 6 m/S 742 mmHg 57%
    14:00 +28°C° 0,4 mm 6 m/S 742 mmHg 56%
    15:00 +28°C° 0,4 mm 6 m/S 742 mmHg 56%
    16:00 +28°C° 0,7 mm 5 m/S 743 mmHg 58%
    17:00 +27°C° 0,7 mm 5 m/S 743 mmHg 61%
    18:00 +27°C° 0,7 mm 4 m/S 743 mmHg 63%
    19:00 +25°C° 0,3 mm 4 m/S 743 mmHg 68%
    20:00 +24°C° 0,3 mm 3 m/S 743 mmHg 73%
    21:00 +23°C° 0,3 mm 2 m/S 743 mmHg 78%
    22:00 +22°C° 0,1 mm 3 m/S 743 mmHg 79%
    23:00 +21°C° 0,1 mm 3 m/S 743 mmHg 81%

    Morgen, 19 Juli, Donnerstag

    Zeit Temperatur Niederschläge Wind Luftdruck Luftfeuchtigkeit
    00:00 +21°C° 0,1 mm 3 m/S 743 mmHg 82%
    01:00 +20°C° 0,1 mm 3 m/S 743 mmHg 84%
    02:00 +20°C° 0,1 mm 3 m/S 743 mmHg 85%
    03:00 +20°C° 0,1 mm 3 m/S 743 mmHg 86%
    04:00 +20°C° 0 mm 3 m/S 743 mmHg 86%
    05:00 +20°C° 0 mm 3 m/S 743 mmHg 85%
    06:00 +21°C° 0 mm 3 m/S 743 mmHg 84%
    07:00 +22°C° 0 mm 3 m/S 743 mmHg 78%
    08:00 +25°C° 0 mm 3 m/S 744 mmHg 71%
    09:00 +27°C° 0 mm 4 m/S 744 mmHg 64%
    10:00 +28°C° 0,2 mm 4 m/S 744 mmHg 59%
    11:00 +29°C° 0,2 mm 5 m/S 744 mmHg 54%
    12:00 +32°C° 0,2 mm 5 m/S 744 mmHg 48%
    13:00 +32°C° 0,1 mm 5 m/S 744 mmHg 47%
    14:00 +32°C° 0,1 mm 5 m/S 744 mmHg 45%
    15:00 +33°C° 0,1 mm 5 m/S 744 mmHg 44%
    16:00 +32°C° 0 mm 5 m/S 744 mmHg 46%
    17:00 +32°C° 0 mm 4 m/S 744 mmHg 48%
    18:00 +30°C° 0 mm 4 m/S 744 mmHg 51%
    19:00 +29°C° 0,1 mm 4 m/S 744 mmHg 56%
    20:00 +27°C° 0,1 mm 3 m/S 744 mmHg 61%
    21:00 +26°C° 0,1 mm 3 m/S 745 mmHg 66%
    22:00 +25°C° 0,1 mm 3 m/S 745 mmHg 68%
    23:00 +24°C° 0,1 mm 3 m/S 745 mmHg 70%

    übermorgen, 20 Juli, Freitag

    Zeit Temperatur Niederschläge Wind Luftdruck Luftfeuchtigkeit
    00:00 +24°C° 0,1 mm 3 m/S 745 mmHg 72%
    01:00 +22°C° 0 mm 3 m/S 745 mmHg 73%
    02:00 +22°C° 0 mm 3 m/S 745 mmHg 73%
    03:00 +21°C° 0 mm 3 m/S 745 mmHg 74%
    04:00 +21°C° 0 mm 3 m/S 745 mmHg 74%
    05:00 +21°C° 0 mm 3 m/S 745 mmHg 75%
    06:00 +21°C° 0 mm 3 m/S 745 mmHg 75%
    07:00 +24°C° 0 mm 3 m/S 745 mmHg 69%
    08:00 +26°C° 0 mm 3 m/S 746 mmHg 64%
    09:00 +28°C° 0 mm 3 m/S 746 mmHg 58%
    10:00 +29°C° 0,1 mm 4 m/S 746 mmHg 54%
    11:00 +30°C° 0,1 mm 4 m/S 746 mmHg 49%
    12:00 +33°C° 0,1 mm 4 m/S 746 mmHg 45%
    13:00 +33°C° 0 mm 4 m/S 745 mmHg 45%
    14:00 +33°C° 0 mm 4 m/S 745 mmHg 45%
    15:00 +33°C° 0 mm 3 m/S 745 mmHg 46%
    16:00 +31°C° 0 mm 3 m/S 745 mmHg 48%
    17:00 +31°C° 0 mm 2 m/S 745 mmHg 50%
    18:00 +30°C° 0 mm 2 m/S 745 mmHg 53%
    19:00 +29°C° 0 mm 2 m/S 745 mmHg 55%
    20:00 +28°C° 0 mm 1 m/S 745 mmHg 57%
    21:00 +27°C° 0 mm 1 m/S 745 mmHg 60%
    22:00 +26°C° 0,4 mm 1 m/S 745 mmHg 64%
    23:00 +25°C° 0,4 mm 2 m/S 745 mmHg 69%

    21 Juli, Samstag

    Zeit Temperatur Niederschläge Wind Luftdruck Luftfeuchtigkeit
    00:00 +24°C° 0,4 mm 2 m/S 745 mmHg 74%
    01:00 +24°C° 0,1 mm 2 m/S 745 mmHg 76%
    02:00 +23°C° 0,1 mm 2 m/S 745 mmHg 78%
    03:00 +23°C° 0,1 mm 2 m/S 745 mmHg 80%
    04:00 +23°C° 0 mm 2 m/S 745 mmHg 80%
    05:00 +23°C° 0 mm 2 m/S 745 mmHg 81%
    06:00 +23°C° 0 mm 2 m/S 745 mmHg 81%
    07:00 +25°C° 0 mm 2 m/S 746 mmHg 75%
    08:00 +26°C° 0 mm 2 m/S 746 mmHg 69%
    09:00 +28°C° 0 mm 3 m/S 746 mmHg 62%
    10:00 +29°C° 0,3 mm 3 m/S 746 mmHg 57%
    11:00 +30°C° 0,3 mm 3 m/S 746 mmHg 52%
    12:00 +33°C° 0,3 mm 4 m/S 746 mmHg 46%
    13:00 +33°C° 0 mm 4 m/S 746 mmHg 46%
    14:00 +33°C° 0 mm 4 m/S 745 mmHg 46%
    15:00 +33°C° 0 mm 4 m/S 745 mmHg 46%
    16:00 +33°C° 0 mm 4 m/S 745 mmHg 48%
    17:00 +31°C° 0 mm 3 m/S 745 mmHg 50%
    18:00 +31°C° 0 mm 3 m/S 745 mmHg 53%
    19:00 +29°C° 0,2 mm 3 m/S 745 mmHg 58%
    20:00 +28°C° 0,2 mm 3 m/S 746 mmHg 62%
    21:00 +26°C° 0,2 mm 2 m/S 746 mmHg 67%
    22:00 +26°C° 0,1 mm 2 m/S 746 mmHg 71%
    23:00 +25°C° 0,1 mm 2 m/S 746 mmHg 74%

    22 Juli, Sonntag

    Zeit Temperatur Niederschläge Wind Luftdruck Luftfeuchtigkeit
    00:00 +24°C° 0,1 mm 2 m/S 746 mmHg 77%
    01:00 +24°C° 0 mm 2 m/S 746 mmHg 81%
    02:00 +23°C° 0 mm 2 m/S 746 mmHg 84%
    03:00 +23°C° 0 mm 2 m/S 745 mmHg 87%
    04:00 +23°C° 0 mm 2 m/S 746 mmHg 88%
    05:00 +23°C° 0 mm 2 m/S 746 mmHg 89%
    06:00 +23°C° 0 mm 2 m/S 746 mmHg 90%
    07:00 +24°C° 0 mm 2 m/S 746 mmHg 83%
    08:00 +26°C° 0 mm 2 m/S 746 mmHg 77%
    09:00 +27°C° 0 mm 2 m/S 746 mmHg 70%
    10:00 +28°C° 0 mm 3 m/S 746 mmHg 66%
    11:00 +29°C° 0 mm 3 m/S 746 mmHg 61%
    12:00 +30°C° 0 mm 3 m/S 746 mmHg 57%
    13:00 +30°C° 0 mm 4 m/S 745 mmHg 55%
    14:00 +32°C° 0 mm 4 m/S 745 mmHg 54%
    15:00 +32°C° 0 mm 4 m/S 745 mmHg 52%
    16:00 +32°C° 0 mm 4 m/S 745 mmHg 53%
    17:00 +31°C° 0 mm 3 m/S 745 mmHg 54%
    18:00 +30°C° 0 mm 3 m/S 745 mmHg 54%
    19:00 +29°C° 0 mm 3 m/S 745 mmHg 60%
    20:00 +27°C° 0 mm 2 m/S 746 mmHg 65%
    21:00 +26°C° 0 mm 2 m/S 746 mmHg 70%
    22:00 +25°C° 0 mm 1 m/S 746 mmHg 72%
    23:00 +25°C° 0 mm 1 m/S 746 mmHg 74%

    23 Juli, Montag

    Zeit Temperatur Niederschläge Wind Luftdruck Luftfeuchtigkeit
    00:00 +24°C° 0 mm 1 m/S 746 mmHg 77%
    01:00 +24°C° 0 mm 1 m/S 746 mmHg 78%
    02:00 +24°C° 0 mm 1 m/S 746 mmHg 80%
    03:00 +23°C° 0 mm 1 m/S 746 mmHg 81%
    04:00 +24°C° 0,1 mm 1 m/S 746 mmHg 81%
    05:00 +24°C° 0,1 mm 1 m/S 746 mmHg 81%
    06:00 +24°C° 0,1 mm 1 m/S 746 mmHg 80%
    07:00 +26°C° 0,3 mm 1 m/S 746 mmHg 74%
    08:00 +27°C° 0,3 mm 1 m/S 746 mmHg 67%
    09:00 +29°C° 0,3 mm 1 m/S 746 mmHg 61%
    10:00 +30°C° 0 mm 2 m/S 746 mmHg 56%
    11:00 +31°C° 0 mm 2 m/S 746 mmHg 51%
    12:00 +33°C° 0 mm 3 m/S 746 mmHg 46%
    13:00 +33°C° 0,1 mm 3 m/S 746 mmHg 46%
    14:00 +33°C° 0,1 mm 3 m/S 746 mmHg 46%
    15:00 +33°C° 0,1 mm 3 m/S 746 mmHg 46%
    16:00 +33°C° 0,4 mm 3 m/S 746 mmHg 49%
    17:00 +31°C° 0,4 mm 3 m/S 746 mmHg 52%
    18:00 +31°C° 0,4 mm 3 m/S 746 mmHg 55%
    19:00 +29°C° 0 mm 2 m/S 746 mmHg 60%
    20:00 +28°C° 0 mm 1 m/S 747 mmHg 65%
    21:00 +26°C° 0 mm 1 m/S 747 mmHg 70%
    22:00 +26°C° 0 mm 1 m/S 747 mmHg 72%
    23:00 +23°C° 0 mm 0 m/S 747 mmHg 74%
    Mehr zeigen